World > North America > United States > Iowa

Julien, Iowa Regional Weather

Lat: 42.48N, Lon: 90.78W
Wx Zone: IAZ042Web Search
Julien Weather Warning NWS WEATHER ALERT FOR THE JULIEN, IA AREA - Issued: 324 AM CDT Tue May 18 2021 Julien Weather Warning  

Helpful Tip: Type the letters wx in the search engine next time you need to find us.

Feedback


°F Click to change Julien hourly weather to Imperial units.Click to change Julien hourly weather to Metric units. °C
Julien Weather Map
UTC Time: 5/18/2021, 14:20
Your Time:

Julien, IA Regional Weather

Expires:202105181500;;312137
ASUS43 KDMX 181406
RWRIA 

WEATHER ROUNDUP FOR IOWA
NATIONAL WEATHER SERVICE DES MOINES IA
900 AM CDT TUE MAY 18 2021

NOTE: "FAIR" INDICATES FEW OR NO CLOUDS BELOW 12,000 FEET WITH NO
SIGNIFICANT WEATHER AND/OR OBSTRUCTIONS TO VISIBILITY.

* - THESE STATIONS ARE NOT NWS STATIONS...THUS NOT UNDER NWS
QUALITY CONTROL.  THEY ALSO DO NOT REPORT WEATHER SUCH 
AS PRECIPITATION OR FOG.  


IAZ007>011-017>019-026>030-037>042-050>054-066-181500-
   NORTHEAST IOWA
  
CITY           SKY/WX    TMP DP  RH WIND       PRES   REMARKS
CEDAR RAPIDS   LGT RAIN  59  58  96 E17       30.06S FOG              
CHARLES CITY * CLOUDY    63  59  88 E17       30.09S                  
CLINTON *      LGT RAIN  62  62 100 E18       30.14S                  
DECORAH *        N/A     63  59  88 SE8G16    30.12R                  
DUBUQUE        CLOUDY    61  57  87 E14       30.14S FOG              
MONTICELLO *   PTSUNNY   61  61 100 E15       30.10S FOG              
OELWEIN *      CLOUDY    61  57  88 E17       30.10S                  
WATERLOO       LGT RAIN  61  59  93 E14       30.07S FOG              
$$
 

SKY/WX - Weather  TMP - Temperature  DP - Dew Point  RH - Relative Humidity
WIND - Wind Direction/Speed PRES - Barometric Pressure VSB - Visibility
WCI - Wind Chill Index E13G22 Wind - East Wind 13 mph/Gusts of 22 mph